GFSMW_sfc_30mbdewp_210.txt.gz
Dewpoint
40 46 52 56 56 57 59 62 63 65 65 65 65 65 65 66 66 66 65 65 65 65 64 63 60 58 56 54 53 54 55 55 57 55 54 54 54 53 54 53 52 52 53
41 46 53 55 57 58 60 63 64 65 66 65 64 64 63 61 58 54 53 53 52 53 50 51 49 49 47 47 47 46 45 43 46 50 48 44 44 52 53 53 52 53 53
39 45 52 54 57 59 61 63 64 63 61 60 57 54 52 48 47 46 47 49 49 49 49 48 47 47 45 42 43 43 43 41 41 43 46 38 33 35 48 52 53 53 55
37 43 51 55 57 59 61 62 59 54 52 49 45 42 39 40 42 43 42 40 43 42 41 42 41 41 40 39 40 38 39 39 37 39 41 47 45 41 38 39 49 51 52
38 44 50 55 57 56 56 54 49 44 44 43 45 41 40 40 39 38 38 39 38 38 37 38 39 39 39 38 41 41 40 40 39 38 39 41 46 46 46 44 38 47 51
39 44 48 52 53 52 49 47 44 41 42 41 39 38 38 35 31 32 31 31 33 35 37 39 40 40 40 39 39 40 41 42 42 42 42 42 39 38 42 44 43 42 45
40 43 43 43 45 46 45 42 40 39 39 38 36 35 35 34 32 32 31 34 32 32 33 36 39 39 39 40 40 41 41 42 42 42 43 43 44 45 43 43 42 41 41
41 42 41 40 41 43 42 38 36 35 35 34 34 34 34 31 31 33 34 34 33 34 36 39 40 40 41 41 42 42 42 43 44 44 45 46 47 46 46 45 43 42 42
40 42 41 39 39 41 40 37 34 32 32 32 34 34 34 34 32 35 37 35 36 36 37 40 41 41 41 41 42 42 41 42 43 46 46 46 46 45 45 46 45 44 41
39 42 41 40 39 39 38 36 33 31 31 32 32 32 33 35 36 37 37 37 38 39 40 41 41 41 40 41 41 42 43 43 42 42 42 42 42 43 44 45 45 44 42
39 41 41 40 38 38 36 35 31 29 30 31 32 34 35 37 38 37 37 38 40 40 39 39 38 38 38 38 38 39 39 40 40 41 41 41 41 41 41 41 43 43 42
38 40 40 39 37 36 34 33 31 29 30 31 33 37 38 37 37 37 38 39 39 39 38 37 36 36 37 37 37 38 38 38 38 38 39 39 40 40 40 41 41 41 42
36 39 39 38 36 33 32 31 30 29 30 32 36 38 38 37 37 37 38 38 38 37 37 36 35 35 36 36 37 37 36 36 36 36 36 36 37 37 38 38 38 38 39
34 37 37 36 34 32 31 30 28 30 32 36 36 36 37 37 37 37 37 37 36 34 34 35 35 36 34 34 34 34 34 34 34 34 34 34 35 35 35 36 36 37 38
32 35 34 33 31 30 30 27 29 31 35 36 36 37 37 37 37 36 36 35 34 33 34 34 35 35 34 34 33 33 32 32 33 33 33 34 35 36 37 36 36 37 37
30 32 31 31 29 28 25 25 29 34 37 36 37 36 36 36 35 35 34 34 33 33 34 33 33 32 33 33 33 32 32 32 32 33 33 35 36 36 36 36 36 36 36
28 30 30 29 27 25 24 26 29 36 35 36 36 35 35 34 34 33 33 32 32 33 33 32 33 32 33 32 31 32 32 33 34 34 34 33 34 34 34 35 36 36 36
27 27 28 28 26 24 24 26 32 33 34 33 34 36 35 33 32 32 32 32 33 32 32 32 32 32 33 31 31 32 34 33 34 33 33 32 32 34 35 35 35 36 37
27 28 28 26 25 24 27 29 31 31 32 32 32 33 33 33 33 31 31 32 32 31 31 32 32 32 32 31 31 31 33 32 33 33 33 33 33 34 34 35 36 36 37
27 26 26 26 25 26 30 31 30 31 31 32 32 33 33 32 31 32 32 32 32 32 32 32 32 31 32 32 31 31 32 31 32 33 32 32 32 33 33 33 34 34 35
28 28 27 28 29 32 32 34 34 33 34 33 33 32 32 31 31 32 32 32 32 32 33 33 34 34 32 32 30 31 31 30 31 31 30 30 31 32 32 32 31 31 32
32 33 32 30 34 35 34 35 34 33 34 34 33 33 32 31 32 31 32 32 31 32 32 31 31 32 32 32 31 30 29 30 30 30 30 31 31 31 31 32 32 32 32
33 31 34 36 36 36 37 35 33 32 32 32 32 31 30 31 31 30 31 32 32 31 31 30 30 30 30 31 31 31 31 30 31 31 31 31 31 30 31 30 31 32 32
27 30 33 35 35 36 34 35 33 33 31 30 31 30 29 30 30 32 33 32 31 32 30 30 29 29 29 30 30 31 32 32 31 32 32 32 32 31 31 31 31 31 32
29 33 34 35 34 34 34 33 33 32 32 32 31 30 31 30 31 31 31 32 31 31 31 30 30 29 29 29 28 28 29 29 29 31 31 30 30 30 30 30 30 31 31
35 35 36 33 33 33 32 33 32 32 31 30 31 32 31 31 31 31 30 31 31 31 31 30 29 29 28 28 27 26 26 27 28 30 29 29 29 28 28 29 29 30 30

GFSMW_sfc_30mbdewp_216.txt.gz
Dewpoint
25 30 41 43 45 45 46 63 66 67 67 67 66 66 65 65 65 66 66 66 67 66 66 66 65 64 63 60 59 55 51 50 50 48 48 55 56 55 57 56 56 56 57
25 30 44 47 50 50 49 58 66 67 66 67 66 65 65 65 65 66 66 66 65 65 65 61 57 51 50 50 49 48 48 48 47 46 45 41 41 44 52 53 53 54 54
25 30 45 47 52 54 53 59 67 66 66 66 66 65 65 65 65 65 64 63 59 53 51 48 47 46 45 44 46 45 44 43 45 44 43 40 36 38 38 38 47 52 53
25 28 41 46 51 55 57 65 65 66 66 66 65 64 62 60 58 56 53 52 49 46 44 43 43 43 43 42 43 42 46 45 43 43 41 41 41 38 36 38 40 43 44
23 27 31 44 50 55 58 63 63 64 65 63 62 60 56 53 52 49 47 44 44 42 39 39 41 42 44 44 44 44 44 45 44 43 43 42 43 43 40 37 38 41 42
25 28 29 44 49 54 61 63 63 62 62 60 58 55 51 48 45 44 41 42 41 40 39 39 41 43 43 44 44 45 45 44 45 45 45 44 43 42 42 41 41 42 42
26 30 31 44 50 56 62 61 60 58 56 55 50 49 47 44 43 41 38 38 36 36 39 40 41 43 43 44 44 45 45 45 45 46 45 45 45 45 45 44 43 43 43
32 33 35 46 53 57 61 59 57 53 51 49 47 46 44 42 40 38 37 36 36 36 40 40 42 42 44 44 45 46 46 45 45 44 44 44 44 45 44 43 43 38 38
28 35 37 46 53 57 58 55 52 50 47 45 43 42 38 39 37 38 38 38 39 37 41 42 43 44 44 43 42 42 42 42 42 42 42 41 41 42 43 43 43 41 38
24 28 37 47 54 55 55 54 52 47 43 43 42 40 39 40 40 40 39 39 40 40 42 42 42 41 41 41 41 41 40 40 40 39 39 39 38 38 39 39 40 40 40
27 31 39 50 53 54 53 52 49 44 42 42 40 39 40 41 40 40 39 40 41 41 41 41 41 41 40 40 39 39 38 37 37 37 36 36 37 36 36 37 38 37 37
30 38 44 47 51 51 50 49 45 41 41 40 41 41 41 40 40 39 40 41 40 41 41 40 39 39 38 38 37 37 36 35 34 35 34 34 34 34 35 35 35 36 36
26 36 45 46 47 48 47 45 41 40 40 39 41 42 41 40 40 40 40 41 40 40 39 38 37 37 37 37 36 36 35 34 34 33 33 33 33 33 34 34 34 35 35
27 36 43 45 45 46 44 42 39 39 38 39 42 41 40 40 40 40 40 40 39 38 37 36 36 36 36 35 34 34 34 33 33 33 33 34 34 34 35 35 35 35 35
28 36 43 44 44 45 43 40 39 38 38 40 41 41 41 40 40 40 39 38 38 37 36 35 35 35 35 33 33 33 32 32 32 32 33 33 35 36 37 36 35 35 34
29 40 43 44 43 43 42 40 38 37 38 39 41 41 40 40 40 39 38 37 36 35 35 35 34 34 33 34 33 33 32 31 32 32 32 34 36 36 35 35 35 34 32
29 37 41 44 43 43 41 39 36 37 37 40 40 40 40 38 38 37 36 35 35 35 34 34 34 33 33 34 33 32 31 32 33 34 34 33 35 34 32 33 33 33 34
30 35 38 42 43 42 40 37 36 36 38 40 39 40 37 34 35 35 32 32 34 33 33 33 34 33 34 33 33 31 32 32 34 34 33 33 33 33 33 32 32 32 33
33 35 37 41 43 41 38 36 35 36 40 37 37 38 35 33 33 32 32 32 32 33 33 33 33 32 32 34 32 31 31 31 32 32 33 34 32 33 33 32 31 31 32
37 34 36 41 42 39 37 34 34 35 37 34 36 38 35 34 33 32 32 33 33 32 33 33 33 33 33 34 32 31 31 31 31 31 31 32 31 31 33 32 31 29 30
37 37 38 40 40 37 34 34 34 33 34 35 35 35 35 36 35 33 33 33 33 33 33 33 33 35 34 32 31 31 30 31 30 31 31 31 31 31 32 33 31 31 32
39 39 38 39 38 35 33 34 35 36 36 35 35 35 35 34 35 33 32 33 32 32 33 34 33 35 32 32 31 31 31 32 31 31 33 33 33 31 31 32 32 33 33
41 38 37 35 34 34 37 36 36 36 35 35 34 34 33 33 32 32 32 32 32 33 33 31 31 31 30 30 29 30 31 32 32 34 33 32 31 31 32 31 32 31 32
33 34 34 35 38 37 36 35 34 34 33 32 32 32 31 31 32 32 32 33 32 32 31 31 30 30 29 29 28 29 31 31 33 32 31 31 31 31 31 32 32 31 31
37 37 38 38 36 35 34 34 34 34 32 32 31 31 32 31 31 32 33 32 31 32 33 30 29 28 27 27 27 27 27 28 31 30 31 31 30 29 30 30 32 32 31
39 38 39 37 35 34 34 34 35 34 32 31 31 32 32 32 31 30 30 31 30 30 29 28 30 31 28 28 27 27 28 28 29 29 30 30 30 29 29 30 30 31 31

GFSMW_sfc_30mbdewp_219.txt.gz
Dewpoint
22 25 34 38 40 43 62 66 67 68 67 67 66 66 65 65 65 66 66 67 67 66 66 65 65 64 63 63 63 62 58 51 50 46 45 46 49 55 57 57 57 57 57
26 32 40 42 42 45 63 66 67 68 66 67 66 66 65 65 65 66 66 66 66 66 65 65 64 63 53 50 49 47 47 47 46 44 43 38 39 40 46 50 51 53 55
24 34 43 44 46 47 57 65 66 67 66 66 65 65 65 65 64 65 65 65 65 64 57 51 48 47 46 44 45 43 42 42 44 44 42 39 37 39 35 35 37 40 45
23 28 44 46 47 49 54 66 67 66 66 66 65 64 63 63 63 64 64 63 53 48 47 46 45 44 43 42 44 46 44 43 41 43 43 43 43 40 40 39 40 39 39
22 24 42 46 50 53 60 66 66 66 65 65 65 64 63 62 60 57 56 51 46 45 44 41 42 44 44 44 43 43 45 46 44 44 44 44 44 44 41 40 39 43 43
23 24 35 45 52 57 64 65 65 65 65 64 64 63 59 56 54 51 46 44 42 40 41 41 43 43 44 44 44 44 44 44 45 45 45 45 44 44 44 43 42 42 43
24 23 31 45 52 58 63 63 64 64 63 63 62 58 55 53 51 47 45 41 41 40 41 42 43 43 44 44 45 45 45 46 45 45 45 45 45 45 45 43 42 41 41
24 30 34 47 53 61 62 62 62 60 61 60 57 54 50 49 47 43 43 41 38 41 42 42 43 43 45 45 43 43 42 43 42 42 42 43 42 42 42 42 41 38 38
24 33 44 50 58 61 60 60 58 58 58 55 53 47 47 44 42 40 39 39 40 42 42 43 44 43 42 41 41 42 41 41 41 40 40 39 40 39 38 38 38 37 33
27 35 46 52 57 61 60 57 54 53 53 49 49 44 42 41 40 40 40 40 41 42 42 43 41 41 41 41 41 40 39 38 38 37 37 37 37 37 38 38 37 36 36
27 32 41 52 57 59 56 54 51 49 46 44 42 42 41 41 40 40 41 41 42 41 41 42 41 40 39 39 38 37 37 36 36 36 35 35 36 35 35 35 35 35 35
30 32 41 54 56 56 54 52 48 45 44 41 42 42 42 41 40 40 41 41 41 41 40 39 39 39 38 37 37 36 36 35 34 34 34 34 34 34 34 34 35 35 35
28 35 50 54 54 54 53 50 46 44 42 41 41 41 41 40 40 41 41 41 40 39 38 38 38 37 36 36 36 36 34 34 34 33 33 33 33 33 34 35 35 36 36
30 33 47 52 53 52 51 46 43 42 41 41 41 40 40 40 40 41 40 40 39 38 37 37 36 36 36 35 35 33 33 32 32 33 32 33 34 34 35 35 35 34 34
28 29 43 49 51 50 48 44 42 41 41 42 41 40 41 41 41 40 39 39 38 37 37 36 35 35 34 34 33 33 32 32 31 32 33 33 34 35 36 35 33 32 32
28 28 43 46 48 47 45 41 41 40 42 41 41 41 41 41 40 39 38 37 37 36 35 34 35 34 34 33 33 32 31 31 31 32 33 34 34 35 35 34 33 33 31
30 32 41 45 46 45 44 40 40 40 41 41 41 41 40 39 39 38 37 36 35 35 34 34 33 33 33 33 32 31 31 31 32 33 33 33 34 35 33 33 33 33 33
30 31 43 44 45 45 43 40 39 39 41 41 40 39 39 37 36 36 35 34 33 33 33 33 33 33 33 33 32 30 31 31 32 33 32 32 32 33 32 32 32 32 33
33 38 44 45 44 44 42 38 37 39 41 40 39 38 37 35 34 33 32 32 32 32 32 33 32 32 32 34 32 31 30 30 31 32 32 32 32 32 32 31 31 31 32
34 35 42 45 44 43 40 37 37 40 39 39 37 36 35 34 32 32 31 32 32 32 32 32 32 32 33 34 31 30 30 30 30 31 32 31 32 33 32 32 30 29 31
37 36 39 44 44 41 37 36 39 38 38 38 36 34 33 33 32 32 32 32 33 33 33 32 33 34 33 32 31 30 31 31 30 30 31 33 33 33 31 31 30 30 32
39 38 39 44 42 39 37 37 38 36 37 37 36 36 35 34 33 32 32 32 32 32 33 32 34 33 32 30 29 30 31 32 31 32 33 32 32 31 30 30 30 30 32
39 40 42 40 39 37 37 36 36 36 36 36 35 34 34 33 32 32 31 32 32 33 33 32 31 30 30 29 28 29 30 31 32 32 31 31 31 31 29 30 30 30 30
37 38 37 36 36 37 36 35 35 35 35 33 33 32 32 31 32 32 32 32 32 32 31 31 30 29 29 26 26 27 27 30 31 30 31 31 29 30 31 31 31 31 30
38 37 36 35 34 34 34 34 34 33 33 32 32 32 32 31 31 32 33 32 32 33 31 30 29 28 26 25 27 27 27 30 30 30 30 30 29 29 30 30 30 31 29
38 36 34 34 33 33 34 34 34 34 33 32 32 31 31 31 31 30 29 31 30 30 31 30 29 27 27 27 27 28 29 29 27 30 29 28 29 29 29 29 30 31 30

GFSMW_sfc_30mbdewp_225.txt.gz
Dewpoint
23 23 24 24 28 44 61 67 67 67 67 67 66 66 65 66 66 66 66 66 66 66 66 66 65 65 64 64 63 62 61 59 52 49 46 43 42 43 44 49 53 49 48
22 23 24 26 38 54 62 66 67 67 67 67 66 66 66 66 66 66 67 67 67 67 66 65 65 64 64 63 62 59 54 50 46 44 40 31 32 38 40 39 37 38 41
24 24 24 29 37 55 62 65 66 67 67 67 66 65 65 64 64 64 65 66 67 67 66 65 65 64 62 61 58 54 51 47 44 44 36 30 25 40 39 37 39 40 41
24 25 25 31 37 55 63 65 66 67 67 67 66 65 64 64 64 64 64 65 66 66 65 64 63 60 56 53 48 45 44 42 40 42 43 42 41 33 29 40 40 42 43
24 24 23 27 37 44 62 64 65 67 67 67 66 65 64 64 64 64 64 63 62 61 60 58 56 53 48 46 45 43 42 42 41 41 42 42 43 42 41 39 41 42 42
24 24 23 28 37 43 56 63 65 66 67 67 66 65 64 64 63 63 62 58 56 53 53 51 49 47 45 44 44 44 43 43 43 44 44 43 42 43 43 42 41 40 40
26 25 24 24 33 42 49 62 64 65 66 66 66 65 64 63 63 63 60 54 51 48 47 46 46 45 45 45 45 44 44 44 44 44 44 44 44 44 43 41 38 37 37
25 26 26 26 28 36 51 61 64 65 66 66 65 65 63 63 62 62 58 54 50 46 45 45 45 45 45 45 45 44 43 43 42 41 41 41 40 40 39 37 36 33 33
25 26 27 27 27 32 47 58 63 65 65 65 65 63 62 62 61 60 54 51 47 45 45 45 45 45 44 44 43 42 41 41 40 40 38 38 38 38 38 37 37 35 30
24 25 27 27 28 34 42 58 63 64 64 64 62 62 61 61 58 55 53 47 45 44 45 44 44 43 42 42 41 40 40 38 37 37 36 36 36 35 35 35 35 34 32
24 25 28 30 31 41 54 59 63 64 64 63 62 60 57 56 53 50 46 44 44 44 44 43 43 42 41 40 39 38 37 36 36 35 34 34 34 33 33 33 34 33 34
30 30 30 35 48 54 59 61 62 62 62 61 59 56 53 51 49 46 44 44 44 45 44 42 41 40 39 38 37 36 36 35 34 34 33 33 33 32 33 34 34 35 35
30 31 33 38 50 57 58 59 60 60 60 58 53 49 49 47 45 44 43 44 44 44 43 41 39 38 38 36 36 36 35 34 33 32 32 32 32 33 33 34 34 35 33
33 32 32 34 46 56 57 56 56 57 56 51 49 47 45 45 44 43 43 43 42 41 40 39 38 37 36 36 35 34 33 32 32 32 32 33 33 33 33 34 34 33 33
35 35 34 34 42 54 55 53 52 51 49 48 46 45 44 43 43 42 41 41 40 39 38 37 36 36 35 34 33 32 31 30 31 31 33 33 33 34 35 34 34 33 32
23 34 35 33 39 51 54 52 49 47 47 47 44 43 43 43 41 41 40 39 38 37 36 35 35 34 34 34 33 31 30 31 30 31 32 33 33 33 33 32 31 31 30
25 28 34 35 36 45 53 52 48 45 45 44 42 43 42 41 40 39 38 37 36 36 34 34 34 33 33 33 32 31 30 30 31 31 32 32 32 32 32 31 31 30 31
34 34 34 37 36 44 52 51 47 44 43 42 41 41 41 39 38 37 36 35 35 34 34 33 33 32 33 33 32 31 31 31 31 31 32 31 31 31 32 32 29 30 31
35 42 42 40 38 38 51 48 45 43 42 41 41 41 40 38 36 35 33 33 32 32 32 32 31 31 32 32 31 30 30 30 30 31 32 32 31 32 32 31 29 29 30
43 42 43 42 40 40 50 46 43 42 41 41 40 40 39 37 35 34 33 33 33 32 31 31 31 31 32 33 32 30 30 29 30 31 31 32 32 32 30 29 29 28 29
43 43 42 41 41 43 48 45 43 42 42 41 40 40 39 37 35 34 33 32 31 31 30 30 31 31 32 32 32 31 30 30 30 30 30 31 32 30 29 30 29 29 30
42 41 40 39 40 45 45 44 42 42 41 40 40 38 38 36 34 32 32 31 31 30 30 30 31 32 32 31 31 32 31 31 31 30 31 31 31 30 29 29 30 30 30
41 41 39 39 41 45 44 43 42 41 39 38 38 36 35 34 33 32 31 31 31 31 30 30 30 30 31 30 30 30 31 31 32 31 31 30 29 29 28 29 29 29 29
41 40 38 38 40 43 42 40 39 38 37 36 35 34 33 32 32 32 32 32 32 31 31 31 30 29 29 27 27 28 29 30 30 30 29 28 29 29 28 28 29 28 29
39 38 37 36 36 36 37 37 36 36 35 33 33 32 32 32 31 32 32 32 33 33 32 32 30 28 27 25 27 27 29 30 30 29 28 27 27 28 29 28 27 27 28
38 36 36 35 35 36 36 36 36 35 33 32 32 31 31 32 31 31 31 33 34 34 33 32 30 29 28 26 28 28 29 30 29 27 26 26 28 28 28 28 26 27 27

GFSMW_sfc_30mbdewp_228.txt.gz
Dewpoint
24 24 23 23 34 49 58 65 66 65 64 63 63 64 63 63 63 64 64 64 65 65 64 64 65 65 65 65 64 63 62 60 55 55 52 47 43 41 41 45 51 42 44
22 22 23 24 23 25 42 59 65 66 65 64 64 63 63 64 64 65 65 65 65 65 65 65 65 65 65 64 63 62 58 56 49 50 43 47 37 35 40 40 38 38 41
22 22 24 25 26 27 33 44 62 65 66 65 65 65 65 65 64 64 65 65 66 66 65 65 65 64 65 64 63 60 58 54 45 44 42 36 27 37 37 37 40 41 42
24 25 25 25 30 37 49 54 61 65 66 66 66 64 63 63 63 64 65 66 66 66 66 65 65 64 64 62 60 56 54 50 48 42 43 41 38 29 22 37 39 42 42
25 25 25 25 25 34 48 61 64 66 66 66 66 65 64 64 64 65 64 65 65 66 66 65 63 62 59 58 55 51 48 43 43 39 41 41 42 42 39 32 35 42 42
22 25 25 25 25 35 47 62 64 65 66 66 66 65 64 64 64 64 63 62 63 62 62 62 60 58 55 52 48 45 44 42 41 42 41 39 37 40 40 40 41 39 40
25 25 25 25 25 29 40 58 63 64 66 66 65 65 65 64 63 63 63 60 59 58 58 56 54 52 50 47 45 44 43 43 41 43 44 45 44 45 44 42 39 38 37
25 25 25 25 26 28 38 49 60 63 65 66 66 66 65 64 64 63 63 60 59 56 51 52 50 48 46 45 45 44 44 44 43 43 43 42 41 40 40 37 35 33 33
24 25 26 27 27 28 32 43 54 60 64 65 66 66 65 64 64 63 61 59 55 51 49 48 47 46 45 45 44 43 43 42 41 40 39 38 38 38 38 37 37 34 30
23 24 25 26 27 28 29 42 51 57 62 65 65 65 65 64 63 61 59 55 52 49 47 46 46 45 45 44 43 42 41 39 39 38 36 36 36 35 35 35 35 35 32
26 25 26 28 31 34 38 41 52 58 62 65 65 64 63 62 61 59 56 51 48 47 46 45 44 44 43 42 41 40 39 37 36 36 35 34 34 33 33 33 33 33 33
33 34 32 32 39 43 50 53 55 59 62 64 63 62 62 59 58 53 51 48 47 46 45 44 43 43 42 41 39 37 37 35 34 34 33 32 33 32 33 33 33 34 34
32 35 35 35 35 41 53 57 59 62 63 63 62 60 57 56 53 51 48 47 46 45 44 43 42 42 41 39 39 37 35 34 34 33 31 31 32 32 33 33 33 34 34
32 26 27 33 34 39 50 56 57 59 60 59 56 54 54 52 51 48 47 46 45 43 43 43 41 41 40 37 36 35 34 33 32 32 32 32 32 32 33 33 34 34 33
18 18 20 25 32 36 46 54 56 57 56 54 53 51 51 49 48 47 45 44 43 42 42 41 40 38 37 35 34 34 32 31 31 31 32 33 33 33 35 34 33 32 30
18 19 21 27 32 35 42 51 53 54 53 52 51 48 48 47 46 44 44 42 42 40 39 38 37 36 35 35 33 32 31 30 30 31 32 33 33 32 32 32 31 31 30
19 19 17 32 34 38 41 47 51 50 51 50 47 47 46 45 44 43 41 40 40 38 37 36 35 34 34 33 33 31 30 30 30 31 31 32 32 31 32 31 31 30 31
14 14 20 31 41 41 43 48 50 48 48 47 46 45 45 43 42 40 39 38 37 36 35 34 34 33 33 33 32 31 30 30 31 31 31 31 30 31 31 32 30 29 30
16 20 30 40 40 43 42 45 48 46 46 45 45 44 44 42 39 38 36 35 35 34 33 33 33 33 33 32 32 31 31 30 30 31 31 31 31 31 33 30 28 29 29
22 27 30 35 42 42 42 45 47 45 45 44 44 44 42 41 38 36 35 34 34 32 32 32 32 32 32 32 31 31 30 30 29 31 31 32 32 32 30 29 29 28 29
26 28 37 42 41 41 41 42 46 45 45 44 43 42 41 39 38 35 34 33 32 32 31 30 31 32 32 32 32 31 30 29 30 30 30 31 32 30 30 29 30 30 30
31 39 40 37 38 41 41 41 44 45 44 42 41 40 39 37 36 35 33 32 31 30 30 30 30 31 32 32 32 31 30 31 30 30 30 31 31 29 29 29 29 30 29
32 33 33 36 38 40 40 40 43 42 41 40 39 38 37 36 35 33 32 31 31 30 30 30 30 30 31 31 32 32 31 31 31 31 31 30 29 28 29 30 28 28 28
33 32 32 37 37 37 37 39 41 40 39 38 36 35 34 33 34 34 33 32 31 31 31 30 30 29 29 30 30 30 30 31 31 31 29 29 29 29 28 28 28 28 29
37 33 35 36 37 37 37 37 38 38 37 35 34 34 33 33 32 33 32 32 32 32 32 32 31 29 28 28 29 28 29 30 30 29 28 27 28 27 28 27 27 27 27
37 37 37 37 37 37 36 37 37 37 34 33 32 32 32 33 32 32 32 33 33 33 33 32 32 31 30 30 29 29 30 30 29 27 26 27 28 27 28 26 26 27 27

GFSMW_sfc_30mbdewp_234.txt.gz
Dewpoint
20 25 29 43 57 57 58 61 62 64 64 63 62 62 62 63 63 63 63 64 65 65 65 63 63 64 61 61 62 62 63 64 64 63 62 62 62 62 60 57 55 53 50
20 23 28 32 35 41 56 60 62 64 66 64 63 62 61 62 63 64 64 64 64 65 65 63 62 63 61 61 62 62 64 64 64 62 60 56 56 54 53 52 48 44 39
19 22 25 29 33 36 38 43 51 58 65 65 64 63 63 63 63 63 64 64 64 65 65 64 62 63 62 61 62 63 63 62 60 60 58 55 52 49 42 43 40 42 39
22 23 24 27 29 33 37 40 39 45 54 63 61 63 61 61 62 63 63 64 65 64 64 64 64 63 63 61 63 64 63 63 60 57 54 50 46 50 49 40 40 40 40
22 22 22 22 23 26 32 41 41 40 43 56 62 63 63 62 62 63 63 65 64 64 64 64 64 64 64 63 64 64 65 63 61 59 54 52 47 47 46 48 42 39 38
22 22 21 22 22 23 31 38 42 41 42 47 61 63 62 62 60 62 63 64 64 64 64 64 64 65 65 64 65 66 65 63 62 60 54 52 51 49 47 46 40 32 35
27 28 26 27 28 28 33 39 41 42 46 47 55 61 62 62 62 61 63 62 63 64 64 64 65 66 65 65 66 66 65 64 61 58 54 50 46 43 42 35 32 31 32
23 27 27 28 30 34 36 38 42 45 48 55 57 60 61 62 62 62 62 63 63 64 65 65 66 67 66 67 66 66 65 62 57 54 50 47 45 42 40 35 32 30 32
31 32 34 35 33 32 33 39 41 44 51 57 60 61 62 63 63 63 64 64 64 64 65 65 66 66 66 65 63 60 55 54 52 50 50 46 44 43 40 36 35 33 29
32 36 35 36 38 39 40 42 41 39 44 54 59 61 62 63 64 65 65 66 65 65 66 65 66 65 64 62 59 58 54 50 50 48 45 42 41 40 39 39 37 36 34
30 32 30 30 32 37 39 45 50 49 48 45 48 56 59 61 64 65 65 66 65 65 65 64 64 63 61 60 58 55 50 48 46 45 44 41 40 38 37 37 36 35 34
25 26 26 27 29 31 39 40 46 51 55 55 53 52 57 61 63 65 65 65 64 63 63 62 62 61 59 56 53 49 47 45 43 42 41 40 39 38 37 36 36 35 35
20 21 22 24 26 25 32 41 44 47 52 57 59 58 58 60 63 65 65 63 62 60 60 61 59 57 53 51 47 45 44 43 41 40 40 39 36 37 36 37 37 36 35
16 14 15 19 22 21 27 34 40 45 49 54 58 59 60 61 64 61 60 60 58 57 57 57 56 54 50 47 43 42 40 41 41 40 40 37 36 37 37 36 37 36 36
12 13 12 15 18 18 25 31 37 42 46 51 56 59 62 62 61 59 58 56 55 55 53 53 53 51 48 44 42 42 41 40 38 39 37 38 37 36 36 35 37 36 36
10 11 11 12 16 18 24 32 34 37 43 47 52 56 56 56 55 54 53 52 51 51 51 48 47 46 43 42 41 42 41 38 38 37 36 37 35 35 34 33 32 33 35
13 13 12 13 17 20 24 27 31 35 40 45 50 54 55 53 52 51 50 49 49 49 48 46 46 44 41 39 38 38 38 37 37 36 35 34 34 35 34 31 31 31 30
13 14 15 19 20 21 23 26 28 34 36 41 46 51 53 50 49 49 48 48 48 47 46 46 46 44 41 37 37 37 38 37 37 36 36 34 35 36 35 34 33 33 33
18 20 21 21 22 22 24 26 28 33 32 36 42 47 50 50 46 47 45 44 45 45 44 44 43 41 38 35 35 37 37 36 37 37 37 36 35 32 32 34 34 32 32
23 24 25 25 25 24 27 29 29 34 33 32 38 43 48 50 46 43 42 43 42 41 41 40 39 37 36 34 35 36 36 35 34 36 35 34 35 32 30 33 32 30 31
25 24 24 26 26 27 28 30 33 34 33 35 38 42 46 49 46 41 40 41 40 39 38 37 38 38 35 33 34 35 35 35 34 34 34 34 32 31 29 30 32 31 32
23 23 24 25 28 29 31 31 31 35 36 38 39 42 46 48 43 40 38 38 38 37 36 36 36 36 34 33 33 34 35 35 35 34 35 34 31 30 29 31 29 29 31
24 24 23 25 27 30 32 33 35 36 40 43 42 43 48 44 40 38 36 36 37 36 34 34 33 33 33 33 32 33 34 35 35 36 35 32 30 29 29 28 28 30 32
24 24 24 25 28 31 34 34 35 37 40 42 42 43 43 38 37 37 36 36 35 35 34 33 32 32 32 32 32 32 33 33 34 32 32 30 31 32 31 30 31 32 31
26 27 28 29 29 30 32 34 37 40 40 39 42 40 39 37 35 36 36 36 37 36 35 34 32 31 31 32 32 33 33 33 33 33 31 30 29 29 29 30 30 30 30
29 29 29 29 30 31 32 33 35 38 41 40 38 38 36 35 35 34 34 36 36 36 35 35 33 33 33 32 33 33 33 33 32 31 31 31 31 30 29 29 29 29 29